Flag for Iran Weather past 2 weeks in Esfahãn, Iran

Now
39 °F

Clear.


Feels Like: 34 °F
Forecast: 32 / 59 °F
Wind: 7 mph from Southeast

Location: Esfahan

Current Time: Jan 27, 2015 at 7:42:35 AM

Latest Report: Jan 27, 2015 at 7:00 AM


Visibility: 4 mi

Pressure: 30.12 "Hg

Humidity: 39%

Dew point: 16 °F

Location of EsfahãnLocation

Historic Weather in Esfahãn — Graph

°F

Esfahãn temperature yesterday

Maximum temperature yesterday: 57 °F (at 2:30 PM)
Minimum temperature yesterday: 19 °F (at 1:30 AM)
Average temperature yesterday: 40 °F

Past Weeks' High & Low Weather Summary

 TemperatureHumidityPressure
High61 °F (Jan 16, 2:00 PM)93% (Jan 18, 6:30 AM)30.39 "Hg (Jan 18, 6:30 AM)
Low10 °F (Jan 21, 6:00 AM)13% (Jan 26, 3:00 PM)29.98 "Hg (Jan 17, 2:00 PM)
Average36 °F46%30.18 "Hg
* Reported Jan 12 6:30 AM — Jan 27 6:30 AM, Esfahãn, Weather by CustomWeather, © 2014

Note: Actual official high and low records may vary slightly from our data, if they occured in-between our weather recording intervals... More about our weather records

Advertising

Esfahãn weather history for previous 24 hours

 ConditionsComfort  
Time TempWeatherWind HumidityBarometerVisibility
6:30 AM
Jan 27
39 °FClear.9 mph36%30.09 "Hg4 mi
6:00 AM39 °FClear.7 mph36%30.09 "Hg4 mi
5:30 AM41 °FClear.No wind36%30.09 "Hg4 mi
5:00 AM43 °FClear.5 mph36%30.09 "Hg4 mi
4:30 AM39 °FClear.No wind36%30.09 "Hg4 mi
4:00 AM43 °FClear.5 mph34%30.09 "Hg4 mi
3:30 AM41 °FClear.7 mph33%30.12 "Hg4 mi
3:00 AM43 °FClear.5 mph31%30.12 "Hg4 mi
2:30 AM45 °FClear.5 mph29%30.12 "Hg4 mi
2:00 AM45 °FPartly cloudy.5 mph27%30.12 "HgN/A
1:30 AM45 °FPassing clouds.7 mph29%30.12 "HgN/A
12:30 AM45 °FPassing clouds.5 mph29%30.12 "HgN/A
12:00 AM46 °FPassing clouds.7 mph27%30.15 "HgN/A
11:30 PM
Jan 26
46 °FPassing clouds.9 mph29%30.15 "HgN/A
11:00 PM46 °FPassing clouds.7 mph27%30.15 "HgN/A
10:30 PM46 °FPassing clouds.7 mph27%30.15 "HgN/A
10:00 PM48 °FPassing clouds.7 mph23%30.15 "HgN/A
9:30 PM48 °FClear.7 mph23%30.15 "Hg10 mi
9:00 PM46 °FPartly cloudy.9 mph23%30.15 "HgN/A
8:30 PM50 °FPartly cloudy.9 mph22%30.18 "HgN/A
8:00 PM50 °FPartly cloudy.12 mph20%30.18 "HgN/A
7:30 PM52 °FMostly cloudy.7 mph22%30.18 "Hg4 mi
7:00 PM52 °FHaze.5 mph24%30.18 "Hg3 mi
6:30 PM52 °FHaze.5 mph24%30.18 "Hg3 mi
6:00 PM52 °FHaze.5 mph20%30.18 "Hg3 mi
5:30 PM55 °FHaze.5 mph16%30.15 "Hg3 mi
5:00 PM55 °FHaze.5 mph16%30.15 "Hg3 mi
4:30 PM57 °FHaze.5 mph17%30.15 "Hg3 mi
4:00 PM57 °FHaze.7 mph17%30.15 "Hg3 mi
3:30 PM57 °FHaze.7 mph17%30.18 "Hg2 mi
3:00 PM57 °FHaze.5 mph13%30.18 "Hg2 mi
2:30 PM57 °FHaze.5 mph15%30.18 "Hg2 mi
2:00 PM55 °FHaze.9 mph14%30.18 "Hg2 mi
1:30 PM54 °FHaze.7 mph19%30.21 "Hg2 mi
1:00 PM54 °FHaze.5 mph21%30.21 "Hg2 mi
12:30 PM50 °FHaze.5 mph25%30.24 "Hg2 mi
12:00 PM50 °FHaze.5 mph28%30.27 "Hg2 mi
11:30 AM48 °FHaze.No wind29%30.27 "Hg2 mi
11:00 AM46 °FHaze.5 mph29%30.30 "Hg2 mi
10:30 AM45 °FHaze.No wind31%30.30 "Hg2 mi
10:00 AM39 °FHaze.5 mph39%30.30 "Hg2 mi
9:30 AM36 °FHaze.5 mph41%30.30 "Hg3 mi
9:00 AM32 °FHaze.5 mph44%30.30 "Hg3 mi
8:30 AM28 °FHaze.No wind47%30.27 "Hg3 mi
8:00 AM25 °FHaze.5 mph54%30.27 "Hg2 mi
7:30 AM23 °FHaze.5 mph58%30.27 "Hg2 mi
7:00 AM21 °FHaze.No wind63%30.24 "Hg3 mi
Weather by CustomWeather, © 2014

See weather overviewHow to use our weather pages